Weather in Toysi

Russia / Chuvash Republic     55°04′34″N   47°46′08″E
temp.,
°C
wind,
m/s
gust,
m/s
humid.,
%
clouds,
%
prec.,
mm/h
press.,
hPa
HPBL,
m
17 may, tue
tue1700:00+7w359248 0.0 1002109
03:00+6w3797100 0.0 1001189
06:00+8w4792100 0.4 1001428
09:00+8w3689100 2.6 1001548
12:00+11wnw4470100 0.6 10011091
15:00+11wsw5672100 1.3 1001885
18:00+11w3572100 0.4 1001524
21:00+8wnw228495 0.6 100121
18 may, wed
wed1800:00+7w1189100 0.0 100110
03:00+6w2290100 0.0 100143
06:00+7wnw1191100 0.8 100275
09:00+11wnw5669100 1.3 10021132
12:00+11nw7880100 0.5 10031003
15:00+8nnw358963 0.8 1005412
18:00+9nw5886100 0.4 1007607
21:00+7wnw5891100 0.6 1008429
19 may, thu
thu1900:00+7w479151 0.1 1009295
03:00+5wnw4990100 0.1 1009323
06:00+6wnw5891100 0.5 1009879
09:00+7nw6783100 1.1 1010923
12:00+8nw566599 0.4 10101306
15:00+10w3455100 0.7 10091307
18:00+6wnw5693100 2.1 1010865
21:00+4wnw499694 2.8 1011488
20 may, fri
fri2000:00+3wnw510932 0.0 1011282
03:00+2wnw49915 0.0 1012227
06:00+3nw598277 0.0 1012344
09:00+5nw6784100 0.5 1012950
12:00+4nw6992100 0.4 1013722
15:00+7nw7107479 0.6 10131279
18:00+8nnw6117288 1.1 1013848
21:00+5nw388773 1.3 1014200
21 may, sat
sat2100:00+3wnw48896 0.0 1014156
03:00+2wnw378720 0.0 1013115
06:00+4wnw46795 0.0 1013208
09:00+9nw34595 0.0 1012884
12:00+10nnw344893 0.1 10101616
15:00+10n3354100 0.7 10091410
18:00+9nne336799 0.6 1009380
21:00+7ne117256 0.6 100810